Point Mugu, CA

8:31 PM PDT on March 22, 2017 (GMT -0700)
Point Mugu Naval Air Station

Weather History for KNTD - November, 2011

Change the Weather History Date:

Friday, November 11, 2011

  Actual Average Record
Temperature  
Mean Temperature 58 °F -  
Max Temperature 66 °F 66 °F 81 °F (2016)
Min Temperature 51 °F 47 °F 44 °F (1998)
Degree Days  
Heating Degree Days 6    
Growing Degree Days 8 (Base 50)    
Moisture  
Dew Point 45 °F    
Average Humidity 61    
Maximum Humidity 89    
Minimum Humidity 38    
Precipitation  
Precipitation 0.25 in - - ()
Sea Level Pressure  
Sea Level Pressure 29.89 in    
Wind  
Wind Speed 6 mph (ESE)    
Max Wind Speed 16 mph    
Max Gust Speed 21 mph    
Visibility 7 miles    
Events Rain    
Averages and records for this station are not official NWS values.
T = Trace of Precipitation, MM = Missing Value Source: NWS Daily Summary

Daily Weather History Graph

Daily Weather History Graph

Search for Another Location

Airport or City:

Trip Planner

Search our weather history database for the weather conditions in past years. The results will help you decide how hot, cold, wet, or windy it might be!

Date:

Astronomy

Nov. 11, 2011 Rise Set
Actual Time 6:25 AM PST 4:55 PM PST
Civil Twilight 5:58 AM PST 5:21 PM PST
Nautical Twilight 5:28 AM PST 5:51 PM PST
Astronomical Twilight 4:59 AM PST 6:21 PM PST
Moon 5:32 PM PST (11/11) 7:14 AM PST (11/11)
Length of Visible Light 11h 22m
Length of Day
10h 30m
Full, 99% of the Moon is Illuminated
Nov 11
Full
Nov 18
Last Quarter
Nov 24
New
Dec 2
First Quarter
Dec 10
Full

Hourly Weather History & Observations

Time (PST) Temp. Dew Point Humidity Pressure Visibility Wind Dir Wind Speed Gust Speed Precip Events Conditions
12:54 AM 57.0 °F 41.0 °F 55% 29.99 in 10.0 mi ENE 5.8 mph - N/A   Clear
1:54 AM 55.0 °F 41.0 °F 59% 29.96 in 10.0 mi Calm Calm - N/A   Clear
2:54 AM 57.0 °F 43.0 °F 59% 29.95 in 10.0 mi Calm Calm - N/A   Partly Cloudy
3:54 AM 55.9 °F 45.0 °F 67% 29.94 in 10.0 mi ENE 3.5 mph - N/A   Mostly Cloudy
4:54 AM 57.0 °F 45.0 °F 64% 29.96 in 10.0 mi Calm Calm - N/A   Overcast
5:54 AM 55.0 °F 43.0 °F 64% 29.94 in 10.0 mi NNW 3.5 mph - 0.00 in   Overcast
6:54 AM 57.9 °F 43.0 °F 58% 29.95 in 7.0 mi Calm Calm - N/A   Overcast
7:54 AM 60.1 °F 46.0 °F 60% 29.94 in 7.0 mi SE 6.9 mph - N/A   Mostly Cloudy
8:54 AM 63.0 °F 46.0 °F 54% 29.93 in 7.0 mi SE 13.8 mph - N/A   Mostly Cloudy
9:54 AM 62.1 °F 46.0 °F 56% 29.95 in 7.0 mi SW 5.8 mph - N/A   Mostly Cloudy
10:54 AM 64.9 °F 43.0 °F 45% 29.94 in 7.0 mi South 10.4 mph - N/A   Mostly Cloudy
11:01 AM 64.4 °F 44.6 °F 49% 29.92 in 7.0 mi South 9.2 mph - N/A   Mostly Cloudy
11:54 AM 66.0 °F 46.9 °F 50% 29.88 in 7.0 mi South 11.5 mph - N/A   Mostly Cloudy
12:54 PM 64.0 °F 51.1 °F 63% 29.87 in 7.0 mi SSE 10.4 mph - N/A   Mostly Cloudy
1:54 PM 62.1 °F 48.0 °F 60% 29.85 in 7.0 mi SSE 8.1 mph - N/A   Mostly Cloudy
2:54 PM 61.0 °F 53.1 °F 75% 29.84 in 7.0 mi South 8.1 mph - N/A   Overcast
3:19 PM 60.8 °F 55.4 °F 82% 29.84 in 7.0 mi South 5.8 mph - 0.00 in Rain Light Rain
3:54 PM 60.1 °F 54.0 °F 80% 29.85 in 7.0 mi SE 4.6 mph - 0.00 in Rain Light Rain
4:54 PM 59.0 °F 43.0 °F 55% 29.83 in 7.0 mi ENE 6.9 mph - 0.00 in   Overcast
5:54 PM 59.0 °F 37.9 °F 46% 29.85 in 7.0 mi NE 5.8 mph - N/A   Overcast
6:54 PM 59.0 °F 36.0 °F 42% 29.83 in 7.0 mi ENE 8.1 mph - 0.00 in   Overcast
7:54 PM 60.1 °F 34.0 °F 38% 29.78 in 7.0 mi ENE 4.6 mph - 0.00 in   Overcast
8:54 PM 61.0 °F 44.1 °F 54% 29.83 in 7.0 mi SE 11.5 mph 18.4 mph 0.00 in Rain Light Rain
9:54 PM 52.0 °F 46.9 °F 83% 29.85 in 7.0 mi NNE 10.4 mph - 0.10 in Rain Light Rain
10:54 PM 51.1 °F 46.9 °F 86% 29.83 in 3.0 mi ENE 16.1 mph 20.7 mph 0.15 in Rain Rain
11:54 PM 51.1 °F 48.0 °F 89% 29.83 in 4.0 mi NE 12.7 mph - N/A Rain Rain